Location: Doughton Park
(36.4224°N, 81.1835°W)
Time: 20:55:41
(UTC-04:00)

Amateur Radio Satellites - All Passes

Search period start: 24 April 2017 20:25
Search period end: 25 April 2017 20:25
Location: Doughton Park, 36.4224°N, 81.1835°W

Satellite Date Start Highest point End Downlink Frequencies (MHz)
Time Altitude Azimuth
JUGNU 24 Apr 20:37:38 20:41:02 16° 180° (S) 20:44:26 437.505
M-CUBED/EXP-1 PRIME 24 Apr 20:40:01 20:44:05 49° 104° (ESE) 20:47:48 437.505
NO-84 24 Apr 21:07:49 21:11:26 53° 315° (NW) 21:14:46 435.350 FM
ZACube-1 24 Apr 21:09:59 21:14:08 60° 76° (ENE) 21:18:16 437.345
CUTE 1.7 + AOD 2 24 Apr 21:13:49 21:16:34 17° 267° (W) 21:19:21 437.475
STRAND 1 24 Apr 21:15:58 21:20:58 57° 287° (WNW) 21:25:57 437.568
AAUSAT CUBESAT 2 24 Apr 21:16:11 21:20:11 52° 260° (W) 21:24:15 437.432
AO-73 24 Apr 21:18:14 21:22:25 68° 76° (ENE) 21:26:33 145.935
HO-68 24 Apr 21:31:52 21:37:18 23° 266° (W) 21:42:46 435.675
Oscar 11 24 Apr 21:36:29 21:40:46 88° 259° (W) 21:45:05 .
SEEDS 24 Apr 21:38:58 21:41:06 14° 268° (W) 21:43:15 437.485
O/OREOS (USA 219) 24 Apr 21:45:28 21:50:03 76° 251° (WSW) 21:54:34 437.305
UWE-3 24 Apr 21:46:07 21:49:48 27° 264° (W) 21:53:26 435.000/436.395/437.385
CUBEBUG 2 24 Apr 21:56:08 21:58:20 13° 267° (W) 22:00:30 437.445
SRMSAT 24 Apr 21:56:21 21:59:15 14° 172° (S) 22:02:08 437.500
OBJECT BX 24 Apr 22:01:57 22:05:12 32° 73° (ENE) 22:08:29 145.990 - 145.960
M-CUBED/EXP-1 PRIME 24 Apr 22:16:03 22:17:58 13° 301° (WNW) 22:19:50 437.505
DELFI C3 24 Apr 22:20:42 22:24:40 84° 77° (ENE) 22:28:40 145.870
FO-29 24 Apr 22:24:04 22:25:40 11° 92° (E) 22:27:18 435.910
JUGNU 24 Apr 22:26:48 22:29:15 13° 190° (S) 22:31:41 437.505
TIGRISAT 24 Apr 22:44:28 22:47:47 22° 95° (E) 22:51:07 435.000
AO-85 24 Apr 22:50:44 22:54:41 60° 58° (ENE) 22:58:50 145.980
UNISAT 6 24 Apr 23:04:25 23:08:28 41° 99° (E) 23:12:33 437.425
BEESAT 3 24 Apr 23:06:24 23:08:56 16° 49° (NE) 23:11:27 437.485
PRISM 24 Apr 23:12:37 23:16:47 90° 155° (SSE) 23:20:54 437.425
LO-87 24 Apr 23:13:11 23:16:27 32° 73° (ENE) 23:19:43 145.935 - 145.965
OBJECT BX 24 Apr 23:37:24 23:38:59 12° 267° (W) 23:40:34 145.990 - 145.960
SRMSAT 24 Apr 23:44:15 23:47:37 15° 183° (S) 23:51:00 437.500
FO-29 25 Apr 00:06:00 00:11:10 69° 285° (WNW) 00:16:40 435.910
NANOSAT C BR1 25 Apr 00:15:16 00:17:36 14° 93° (E) 00:19:54 145.865
ESTCUBE 1 25 Apr 00:15:21 00:19:50 80° 258° (WSW) 00:24:22 437.505/2401.250
TIGRISAT 25 Apr 00:20:49 00:24:25 27° 289° (WNW) 00:28:02 435.000
SPROUT 25 Apr 00:21:46 00:25:25 28° 71° (ENE) 00:29:04 437.525
BEESAT 2 25 Apr 00:36:40 00:40:39 53° 57° (ENE) 00:44:35 435.950
VELOX 1 25 Apr 00:38:08 00:42:25 49° 73° (ENE) 00:46:44 145.980
EO-79 25 Apr 00:40:26 00:44:13 32° 98° (E) 00:47:58 145.935-145.965
UNISAT 6 25 Apr 00:42:22 00:44:50 15° 293° (WNW) 00:47:18 437.425
BEESAT 3 25 Apr 00:42:55 00:46:44 43° 245° (WSW) 00:50:29 437.485
DUCHIFAT 1 25 Apr 00:45:07 00:48:48 29° 97° (E) 00:52:26 145.980
LO-87 25 Apr 00:48:16 00:49:57 13° 267° (W) 00:51:40 145.935 - 145.965
AIST 2D 25 Apr 01:08:46 01:12:05 41° 285° (WNW) 01:15:26 435.315
UKube-1 25 Apr 01:09:06 01:12:45 27° 70° (ENE) 01:16:24 .
POLYITAN 1 25 Apr 01:18:41 01:22:54 83° 283° (WNW) 01:27:06 437.675
QB50P2 25 Apr 01:25:14 01:29:23 63° 285° (WNW) 01:33:32 145.880/145.840
50 SAT 25 Apr 01:34:09 01:37:33 53° 260° (W) 01:40:58 437.505
SRMSAT 25 Apr 01:34:31 01:35:59 11° 193° (SSW) 01:37:26 437.500
DX 1 25 Apr 01:36:50 01:41:13 86° 76° (ENE) 01:45:38 434.975-435.025
Oscar 19 25 Apr 01:43:46 01:46:42 15° 92° (E) 01:49:35 437.125/150
NANOSAT C BR1 25 Apr 01:49:33 01:53:26 38° 287° (WNW) 01:57:18 145.865
BUGSAT 1 25 Apr 01:55:17 01:59:17 62° 102° (ESE) 02:03:13 437.445
SPROUT 25 Apr 01:58:01 02:01:16 21° 265° (W) 02:04:32 437.525
PCSat 25 Apr 02:05:43 02:08:39 15° 104° (ESE) 02:11:36 145.827
BEESAT 2 25 Apr 02:16:46 02:17:54 11° 253° (WSW) 02:19:02 435.950
EO-79 25 Apr 02:16:51 02:19:42 18° 292° (WNW) 02:22:33 145.935-145.965
VELOX 1 25 Apr 02:16:59 02:19:06 13° 268° (W) 02:21:13 145.980
DUCHIFAT 1 25 Apr 02:21:16 02:24:14 19° 292° (WNW) 02:27:12 145.980
UKube-1 25 Apr 02:45:18 02:48:42 22° 264° (W) 02:52:08 .
BEESAT 25 Apr 02:50:03 02:54:04 28° 69° (ENE) 02:58:05 436.000
MOZHAYETS 4 25 Apr 03:02:51 03:05:40 16° 66° (ENE) 03:08:28
Gurwin Techsat 1B 25 Apr 03:06:19 03:11:34 58° 101° (E) 03:16:47 435.225
Oscar 19 25 Apr 03:21:13 03:26:19 57° 287° (WNW) 03:31:23 437.125/150
ITUPSAT 1 25 Apr 03:28:26 03:33:09 71° 75° (ENE) 03:37:54 437.325
NO-84 25 Apr 03:44:25 03:46:42 21° 38° (NE) 03:48:56 435.350 FM
PCSat 25 Apr 03:46:05 03:51:26 63° 299° (WNW) 03:56:50 145.827
YUBILEINY 25 Apr 03:53:31 03:59:04 19° 80° (E) 04:04:37 435.215
AO-7 25 Apr 04:11:32 04:18:56 35° 98° (E) 04:26:19 .
BEESAT 25 Apr 04:27:46 04:31:45 26° 264° (W) 04:35:44 436.000
MOZHAYETS 4 25 Apr 04:38:08 04:42:26 43° 261° (W) 04:46:47
ITAMSAT 1 25 Apr 04:42:31 04:47:41 72° 102° (ESE) 04:52:50 435.822/435.867
Gurwin Techsat 1B 25 Apr 04:47:46 04:50:59 16° 296° (WNW) 04:54:11 435.225
KKS-1 25 Apr 05:04:16 05:08:41 62° 75° (ENE) 05:13:07 437.445
NO-84 25 Apr 05:21:57 05:24:05 19° 233° (SW) 05:26:14 435.350 FM
CUBESAT XI-V 25 Apr 05:23:24 05:28:02 89° 246° (WSW) 05:32:43 437.345
STARS 25 Apr 05:41:29 05:45:51 69° 75° (ENE) 05:50:15 437.465
YUBILEINY 25 Apr 05:46:07 05:54:47 77° 277° (W) 06:03:32 435.215
AO-7 25 Apr 06:03:56 06:11:47 48° 295° (WNW) 06:19:39 .
ITAMSAT 1 25 Apr 06:24:13 06:26:30 13° 298° (WNW) 06:28:47 435.822/435.867
KKS-1 25 Apr 06:45:07 06:45:35 10° 269° (W) 06:46:03 437.445
DOVE 4 25 Apr 06:51:28 06:55:48 39° 97° (E) 06:59:52 437.250
STRAND 1 25 Apr 06:52:16 06:55:31 17° 65° (ENE) 06:58:44 437.568
XW-2D 25 Apr 07:03:49 07:07:17 32° 98° (E) 07:10:44 145.860 - 145.880
XW-2B 25 Apr 07:10:36 07:14:11 38° 98° (E) 07:17:46 145.730 - 145.750
CUTE-I 25 Apr 07:16:15 07:21:15 41° 99° (E) 07:26:13 437.470
HO-68 25 Apr 07:17:09 07:18:34 11° 89° (E) 07:19:59 435.675
LilacSat-2 25 Apr 07:19:16 07:23:02 54° 100° (E) 07:26:49 437.200
SO-50 25 Apr 07:22:16 07:26:52 69° 118° (ESE) 07:31:26 436.795
XW-2C 25 Apr 07:22:17 07:26:03 57° 101° (E) 07:29:48 145.795 - 145.815
M-CUBED/EXP-1 PRIME 25 Apr 07:22:17 07:26:36 43° 68° (ENE) 07:31:02 437.505
KAITUO 1B 25 Apr 07:24:35 07:28:14 46° 100° (E) 07:31:52 145.475/437.950
XW-2F 25 Apr 07:49:12 07:52:57 63° 284° (WNW) 07:56:43 145.980 - 146.000
RS-15 25 Apr 07:49:24 08:00:57 59° 111° (ESE) 08:12:52 29.354- 29.394
YUBILEINY 25 Apr 07:49:26 07:53:05 13° 298° (WNW) 07:56:47 435.215
NUDT-PHONESAT 25 Apr 08:06:24 08:09:57 44° 285° (WNW) 08:13:30 437.300
CUBEBUG 2 25 Apr 08:13:20 08:13:53 10° 92° (E) 08:14:27 437.445
STRAND 1 25 Apr 08:29:16 08:34:14 52° 260° (W) 08:39:13 437.568
DOVE 4 25 Apr 08:30:08 08:33:06 17° 294° (WNW) 08:35:58 437.250
XW-2D 25 Apr 08:39:02 08:41:10 15° 292° (WNW) 08:43:18 145.860 - 145.880
XW-2A 25 Apr 08:44:14 08:47:35 71° 102° (ESE) 08:50:55 145.665 - 145.685
XW-2B 25 Apr 08:46:20 08:48:00 13° 293° (WNW) 08:49:40 145.730 - 145.750
CUTE-I 25 Apr 08:56:56 09:00:59 23° 294° (WNW) 09:05:02 437.470
M-CUBED/EXP-1 PRIME 25 Apr 08:58:08 09:01:10 17° 263° (W) 09:04:14 437.505
CUTE 1.7 + AOD 2 25 Apr 08:59:15 09:03:34 84° 282° (WNW) 09:07:51 437.475
HO-68 25 Apr 08:59:59 09:07:13 78° 105° (ESE) 09:14:25 435.675
AAUSAT CUBESAT 2 25 Apr 09:00:56 09:04:33 27° 96° (E) 09:08:08 437.432
KAITUO 1B 25 Apr 09:01:10 09:01:47 10° 294° (WNW) 09:02:24 145.475/437.950
ZACube-1 25 Apr 09:02:03 09:04:11 14° 93° (E) 09:06:19 437.345
SO-50 25 Apr 09:05:18 09:07:47 14° 315° (NW) 09:10:15 436.795
AO-73 25 Apr 09:09:40 09:12:09 15° 94° (E) 09:14:38 145.935
SEEDS 25 Apr 09:22:42 09:26:57 70° 284° (WNW) 09:31:10 437.485
Oscar 11 25 Apr 09:26:53 09:30:08 20° 95° (E) 09:33:22 .
Tancredo 1 25 Apr 09:27:59 09:31:04 70° 320° (NW) 09:34:10 437.200
ISS 25 Apr 09:36:14 09:39:29 78° 321° (NW) 09:42:44 437.550
UWE-3 25 Apr 09:37:05 09:41:15 67° 102° (ESE) 09:45:30 435.000/436.395/437.385
TIGRISAT 25 Apr 09:41:37 09:44:08 15° 67° (ENE) 09:46:37 435.000
CUBEBUG 2 25 Apr 09:46:44 09:50:47 52° 285° (WNW) 09:54:52 437.445
PRISM 25 Apr 09:59:04 10:02:59 43° 73° (ENE) 10:06:57 437.425
UNISAT 6 25 Apr 10:00:58 10:04:40 27° 71° (ENE) 10:08:20 437.425
DELFI C3 25 Apr 10:02:01 10:03:49 13° 92° (E) 10:05:37 145.870
RS-15 25 Apr 10:02:32 10:13:51 44° 313° (NW) 10:25:31 29.354- 29.394
FO-29 25 Apr 10:15:19 10:21:12 38° 71° (ENE) 10:26:30 435.910
O/OREOS (USA 219) 25 Apr 10:17:34 10:20:30 17° 100° (E) 10:23:26 437.305
ZACube-1 25 Apr 10:36:38 10:40:36 42° 286° (WNW) 10:44:39 437.345
AAUSAT CUBESAT 2 25 Apr 10:36:40 10:39:49 21° 291° (WNW) 10:42:56 437.432
AO-73 25 Apr 10:44:35 10:48:29 38° 287° (WNW) 10:52:27 145.935
HO-68 25 Apr 10:49:26 10:54:06 19° 302° (WNW) 10:58:48 435.675
Oscar 11 25 Apr 11:02:28 11:06:15 30° 289° (WNW) 11:10:02 .
OBJECT BX 25 Apr 11:06:15 11:09:53 63° 101° (E) 11:13:31 145.990 - 145.960
Tancredo 1 25 Apr 11:06:29 11:07:28 11° 337° (NNW) 11:08:27 437.200
ISS 25 Apr 11:14:55 11:16:25 13° 337° (NNW) 11:17:55 437.550
TIGRISAT 25 Apr 11:16:15 11:20:27 42° 261° (W) 11:24:36 435.000
EO-79 25 Apr 11:31:00 11:33:54 18° 68° (ENE) 11:36:49 145.935-145.965
DELFI C3 25 Apr 11:35:00 11:38:45 39° 287° (WNW) 11:42:29 145.870
DUCHIFAT 1 25 Apr 11:35:16 11:37:55 17° 68° (ENE) 11:40:34 145.980
PRISM 25 Apr 11:36:33 11:38:27 13° 267° (W) 11:40:22 437.425
UNISAT 6 25 Apr 11:37:48 11:41:18 23° 264° (W) 11:44:46 437.425
AIST 2D 25 Apr 11:40:23 11:43:38 39° 75° (ENE) 11:46:54 435.315
O/OREOS (USA 219) 25 Apr 11:55:13 11:59:31 39° 295° (WNW) 12:03:51 437.305
FO-29 25 Apr 12:00:38 12:06:15 29° 262° (W) 12:11:21 435.910
POLYITAN 1 25 Apr 12:08:24 12:12:29 50° 74° (ENE) 12:16:33 437.675
ESTCUBE 1 25 Apr 12:10:46 12:14:34 26° 96° (E) 12:18:21 437.505/2401.250
QB50P2 25 Apr 12:14:47 12:18:59 66° 75° (ENE) 12:23:10 145.880/145.840
LO-87 25 Apr 12:15:34 12:19:05 57° 100° (E) 12:22:33 145.935 - 145.965
RS-15 25 Apr 12:23:32 12:31:04 17° 345° (NNW) 12:38:36 29.354- 29.394
VELOX 1 25 Apr 12:33:12 12:34:21 11° 91° (E) 12:35:30 145.980
PCSat 25 Apr 12:36:25 12:41:48 59° 61° (ENE) 12:47:07 145.827
NANOSAT C BR1 25 Apr 12:38:19 12:42:32 77° 259° (W) 12:46:45 145.865
BUGSAT 1 25 Apr 12:42:27 12:46:04 30° 72° (ENE) 12:49:42 437.445
Oscar 19 25 Apr 12:58:12 13:01:36 18° 65° (ENE) 13:05:01 437.125/150
50 SAT 25 Apr 13:02:24 13:03:08 10° 93° (E) 13:03:51 437.505
AO-85 25 Apr 13:02:50 13:06:52 36° 115° (ESE) 13:10:41 145.980
EO-79 25 Apr 13:05:37 13:09:25 32° 263° (W) 13:13:13 145.935-145.965
DUCHIFAT 1 25 Apr 13:09:25 13:13:17 35° 262° (W) 13:17:09 145.980
DX 1 25 Apr 13:28:35 13:31:31 18° 94° (E) 13:34:25 434.975-435.025
SPROUT 25 Apr 13:44:52 13:49:07 77° 101° (E) 13:53:20 437.525
POLYITAN 1 25 Apr 13:47:11 13:48:30 11° 268° (W) 13:49:50 437.675
ESTCUBE 1 25 Apr 13:47:30 13:51:15 26° 291° (WNW) 13:55:00 437.505/2401.250
VELOX 1 25 Apr 14:06:46 14:11:07 57° 286° (WNW) 14:15:26 145.980
BUGSAT 1 25 Apr 14:18:31 14:21:26 18° 265° (W) 14:24:21 437.445
PCSat 25 Apr 14:21:24 14:24:37 16° 256° (WSW) 14:27:50 145.827
Gurwin Techsat 1B 25 Apr 14:24:46 14:30:03 73° 75° (ENE) 14:35:22 435.225
BEESAT 2 25 Apr 14:26:46 14:29:18 17° 110° (ESE) 14:31:51 435.950
BEESAT 3 25 Apr 14:29:48 14:33:37 53° 116° (ESE) 14:37:30 437.485
50 SAT 25 Apr 14:32:59 14:36:12 34° 287° (WNW) 14:39:21 437.505
UKube-1 25 Apr 14:33:35 14:37:54 70° 102° (ESE) 14:42:11 .
Oscar 19 25 Apr 14:35:30 14:40:28 50° 260° (W) 14:45:30 437.125/150
RS-15 25 Apr 14:42:12 14:50:39 20° 23° (NNE) 14:58:53 29.354- 29.394
AO-85 25 Apr 14:44:13 14:47:19 19° 309° (NW) 14:50:19 145.980
DX 1 25 Apr 15:03:48 15:07:46 35° 289° (WNW) 15:11:41 434.975-435.025
AO-7 25 Apr 15:07:52 15:15:20 39° 63° (ENE) 15:22:48 .
ITUPSAT 1 25 Apr 15:32:08 15:35:48 22° 95° (E) 15:39:27 437.325
Tancredo 1 25 Apr 15:55:42 15:58:37 38° 36° (NE) 16:01:33 437.200
SO-50 25 Apr 15:56:13 16:00:12 30° 53° (NE) 16:04:10 436.795
ITAMSAT 1 25 Apr 15:57:50 16:03:02 85° 77° (ENE) 16:08:15 435.822/435.867
YUBILEINY 25 Apr 15:59:31 16:07:56 48° 77° (ENE) 16:16:18 435.215
BEESAT 2 25 Apr 16:03:06 16:06:44 35° 305° (NW) 16:10:26 435.950
ISS 25 Apr 16:06:14 16:09:18 38° 36° (NE) 16:12:23 437.550
Gurwin Techsat 1B 25 Apr 16:08:38 16:10:28 12° 269° (W) 16:12:17 435.225
BEESAT 3 25 Apr 16:09:33 16:11:32 13° 313° (NW) 16:13:31 437.485
BEESAT 25 Apr 16:29:17 16:34:04 87° 286° (WNW) 16:38:50 436.000
MOZHAYETS 4 25 Apr 16:35:13 16:39:43 51° 100° (E) 16:44:13
RS-15 25 Apr 16:54:48 17:06:50 56° 52° (NE) 17:18:13 29.354- 29.394
KKS-1 25 Apr 16:59:16 17:01:38 14° 93° (E) 17:03:58 437.445
AO-7 25 Apr 17:00:10 17:07:55 43° 259° (W) 17:15:43 .
ITUPSAT 1 25 Apr 17:09:21 17:13:39 34° 290° (WNW) 17:17:55 437.325
CUBESAT XI-V 25 Apr 17:22:51 17:26:53 27° 96° (E) 17:30:53 437.345
Tancredo 1 25 Apr 17:32:21 17:34:17 15° 231° (SW) 17:36:14 437.200
STARS 25 Apr 17:34:46 17:37:12 15° 93° (E) 17:39:37 437.465
SO-50 25 Apr 17:36:50 17:40:31 25° 248° (WSW) 17:44:13 436.795
ISS 25 Apr 17:43:21 17:45:32 17° 231° (SW) 17:47:45 437.550
XW-2D 25 Apr 17:44:41 17:45:58 11° 67° (ENE) 17:47:15 145.860 - 145.880
XW-2B 25 Apr 17:50:57 17:52:49 13° 68° (ENE) 17:54:41 145.730 - 145.750
DOVE 4 25 Apr 17:53:14 17:57:59 34° 71° (ENE) 18:02:42 437.250
YUBILEINY 25 Apr 17:56:50 18:04:21 34° 275° (W) 18:11:55 435.215
LilacSat-2 25 Apr 17:59:30 18:02:08 18° 70° (ENE) 18:04:47 437.200
XW-2C 25 Apr 18:01:54 18:04:33 19° 70° (ENE) 18:07:14 145.795 - 145.815
KAITUO 1B 25 Apr 18:03:24 18:05:33 15° 69° (ENE) 18:07:43 145.475/437.950
MOZHAYETS 4 25 Apr 18:13:59 18:16:24 14° 295° (WNW) 18:18:51
XW-2F 25 Apr 18:27:30 18:30:57 37° 74° (ENE) 18:34:25 145.980 - 146.000
KKS-1 25 Apr 18:34:08 18:38:22 44° 287° (WNW) 18:42:34 437.445
JUGNU 25 Apr 18:35:08 18:37:40 13° 170° (S) 18:40:12 437.505
CUTE-I 25 Apr 18:35:25 18:40:35 53° 72° (ENE) 18:45:47 437.470
NUDT-PHONESAT 25 Apr 18:42:51 18:46:23 48° 75° (ENE) 18:49:56 437.300
CUBESAT XI-V 25 Apr 19:00:12 19:04:07 26° 291° (WNW) 19:08:01 437.345
RS-15 25 Apr 19:07:58 19:18:52 42° 254° (WSW) 19:29:18 29.354- 29.394
STARS 25 Apr 19:09:36 19:13:42 41° 288° (WNW) 19:17:47 437.465
XW-2A 25 Apr 19:14:18 19:16:16 15° 70° (ENE) 19:18:14 145.665 - 145.685
XW-2D 25 Apr 19:16:14 19:19:45 40° 262° (W) 19:23:18 145.860 - 145.880
XW-2B 25 Apr 19:23:16 19:26:40 33° 262° (W) 19:30:06 145.730 - 145.750
HO-68 25 Apr 19:25:45 19:32:26 45° 67° (ENE) 19:39:09 435.675
DOVE 4 25 Apr 19:31:12 19:35:36 27° 265° (W) 19:40:01 437.250
LilacSat-2 25 Apr 19:33:09 19:36:14 24° 264° (W) 19:39:20 437.200
XW-2C 25 Apr 19:35:33 19:38:35 23° 264° (W) 19:41:38 145.795 - 145.815
KAITUO 1B 25 Apr 19:36:05 19:39:18 29° 263° (W) 19:42:33 145.475/437.950
CUTE 1.7 + AOD 2 25 Apr 19:49:07 19:53:08 46° 74° (ENE) 19:57:12 437.475
AAUSAT CUBESAT 2 25 Apr 19:49:51 19:51:58 14° 67° (ENE) 19:54:04 437.432
XW-2F 25 Apr 20:04:03 20:05:14 11° 268° (W) 20:06:25 145.980 - 146.000
SEEDS 25 Apr 20:11:26 20:15:29 54° 75° (ENE) 20:19:36 437.485
CUTE-I 25 Apr 20:17:30 20:20:54 17° 267° (W) 20:24:18 437.470
Oscar 11 25 Apr 20:20:51 20:22:28 12° 65° (ENE) 20:24:06 .
